Change the Weather History Date:

Wednesday, April 23, 2014

  Actual Average Record
Temperature  
Mean Temperature 82 °F 73 °F  
Max Temperature 94 °F 85 °F 99 °F (2000)
Min Temperature 69 °F 62 °F 45 °F (1910)
Degree Days  
Heating Degree Days 0 0  
Month to date heating degree days 14 24  
Since 1 July heating degree days 1555 1374  
Cooling Degree Days 17 9  
Month to date cooling degree days 188 155  
Year to date cooling degree days 317 261  
Growing Degree Days 32 (Base 50)    
Moisture  
Dew Point 60 °F    
Average Humidity 55    
Maximum Humidity 79    
Minimum Humidity 30    
Precipitation  
Precipitation T in 0.06 in 2.90 in (1981)
Month to date precipitation 0.08 1.18  
Year to date precipitation 0.62 3.92  
Sea Level Pressure  
Sea Level Pressure 29.74 in    
Wind  
Wind Speed 13 mph (SE)    
Max Wind Speed 29 mph    
Max Gust Speed 34 mph    
Visibility 10 miles    
Events Rain    
T = Trace of Precipitation, MM = Missing Value Source: NWS Daily Summary

Daily Weather History Graph

Daily Weather History Graph

Search for Another Location

Airport or City:

Trip Planner

Search our weather history database for the weather conditions in past years. The results will help you decide how hot, cold, wet, or windy it might be!

Date:

Astronomy

Apr. 23, 2014 Rise Set
Actual Time 7:09 AM CDT 8:15 PM CDT
Civil Twilight 6:44 AM CDT 8:40 PM CDT
Nautical Twilight 6:15 AM CDT 9:09 PM CDT
Astronomical Twilight 5:44 AM CDT 9:39 PM CDT
Moon 3:14 AM CDT (4/23) 2:51 PM CDT (4/23)
Length of Visible Light 13h 55m
Length of Day
13h 06m
Waning Crescent, 34% of the Moon is Illuminated
Apr 23
Waning Crescent
Apr 29
New
May 6
First Quarter
May 14
Full
May 21
Last Quarter

Hourly Weather History & Observations

Time (CDT) Temp. Heat Index Dew Point Humidity Pressure Visibility Wind Dir Wind Speed Gust Speed Precip Events Conditions
12:53 AM 75.9 °F - 53.1 °F 45% 29.83 in 10.0 mi East 10.4 mph - N/A   Clear
1:53 AM 75.0 °F - 53.1 °F 46% 29.82 in 10.0 mi East 10.4 mph - N/A   Clear
2:53 AM 73.9 °F - 55.0 °F 52% 29.81 in 10.0 mi East 9.2 mph - N/A   Clear
3:53 AM 73.9 °F - 57.9 °F 57% 29.81 in 10.0 mi ESE 11.5 mph - N/A   Clear
4:53 AM 73.0 °F - 61.0 °F 66% 29.80 in 10.0 mi East 11.5 mph - N/A   Clear
5:53 AM 71.1 °F - 61.0 °F 70% 29.81 in 10.0 mi ESE 11.5 mph - N/A   Clear
6:53 AM 70.0 °F - 61.0 °F 73% 29.81 in 10.0 mi East 11.5 mph - N/A   Clear
7:53 AM 70.0 °F - 63.0 °F 78% 29.81 in 10.0 mi East 12.7 mph - N/A   Clear
8:53 AM 72.0 °F - 64.9 °F 78% 29.83 in 10.0 mi ESE 13.8 mph - N/A   Scattered Clouds
9:05 AM 73.0 °F - 64.9 °F 76% 29.87 in 10.0 mi ESE 11.5 mph - N/A   Mostly Cloudy
9:43 AM 75.9 °F - 66.0 °F 71% 29.87 in 10.0 mi SE 12.7 mph 20.7 mph N/A   Partly Cloudy
9:53 AM 75.9 °F - 66.0 °F 71% 29.82 in 10.0 mi SE 17.3 mph 21.9 mph N/A   Partly Cloudy
10:53 AM 80.1 °F 82.1 °F 66.0 °F 62% 29.81 in 10.0 mi SE 15.0 mph - N/A   Clear
11:53 AM 84.0 °F 85.8 °F 64.9 °F 53% 29.79 in 10.0 mi SE 17.3 mph 26.5 mph N/A   Clear
12:53 PM 88.0 °F 87.1 °F 59.0 °F 37% 29.75 in 10.0 mi SE 23.0 mph 33.4 mph 0.00 in   Clear
1:53 PM 90.0 °F 89.1 °F 59.0 °F 35% 29.72 in 10.0 mi SE 20.7 mph 28.8 mph N/A   Clear
2:53 PM 93.0 °F 92.0 °F 57.9 °F 31% 29.68 in 10.0 mi SE 18.4 mph 32.2 mph N/A   Clear
3:53 PM 93.9 °F 92.9 °F 57.9 °F 30% 29.63 in 10.0 mi SE 20.7 mph 28.8 mph N/A   Clear
4:53 PM 90.0 °F 88.1 °F 55.9 °F 31% 29.63 in 10.0 mi ESE 15.0 mph - N/A   Clear
5:53 PM 88.0 °F 86.9 °F 57.9 °F 36% 29.63 in 10.0 mi East 4.6 mph - N/A   Scattered Clouds
6:53 PM 88.0 °F 86.7 °F 57.0 °F 35% 29.58 in 10.0 mi East 18.4 mph - 0.00 in Rain Light Rain
7:26 PM 81.0 °F 81.7 °F 61.0 °F 50% 29.66 in 10.0 mi SE 9.2 mph - 0.00 in Rain Light Rain
7:53 PM 80.1 °F 81.5 °F 63.0 °F 56% 29.62 in 10.0 mi South 12.7 mph - 0.00 in Rain Light Rain
8:53 PM 75.0 °F - 63.0 °F 66% 29.64 in 10.0 mi SSE 12.7 mph - 0.00 in   Clear
9:53 PM 75.0 °F - 62.1 °F 64% 29.65 in 10.0 mi SE 8.1 mph - N/A   Clear
10:53 PM 72.0 °F - 61.0 °F 68% 29.68 in 10.0 mi South 3.5 mph - N/A   Clear
11:53 PM 72.0 °F - 62.1 °F 71% 29.69 in 10.0 mi SSE 3.5 mph - N/A   Clear